N7QNM-13 Weather Reports


time (UTC)temp
C
wind
direction
speed
KPH
gust
KPH
rain 1hr
cm
rain 24hr
cm
rain mn
cm
humidity
%
barometer
mb
20260506105108 11 152 0.0 1.6 0.00 0.00 0.00 77 1011.3
20260506104049 11 114 1.6 6.4 0.00 0.00 0.00 75 1011.3
20260506103049 11 137 0.0 1.6 0.00 0.00 0.00 74 1011.2
20260506102049 11 226 1.6 4.8 0.00 0.00 0.00 75 1011.1
20260506101049 11 199 1.6 6.4 0.00 0.00 0.00 75 1011.2
20260506100049 12 167 0.0 1.6 0.00 0.00 0.00 74 1011.1
20260506095049 12 0.0 0.0 0.00 0.00 0.00 74 1011.2
20260506094050 12 150 0.0 3.2 0.00 0.00 0.00 73 1011.1
20260506093109 13 85 0.0 3.2 0.00 0.00 0.00 71 1011.1
20260506092049 13 85 0.0 3.2 0.00 0.00 0.00 70 1011.0
20260506091050 13 246 1.6 4.8 0.00 0.00 0.00 69 1011.0
20260506090050 14 195 0.0 4.8 0.00 0.00 0.00 68 1010.9
20260506085051 15 133 0.0 4.8 0.00 0.00 0.00 66 1010.9
20260506084050 15 0.0 0.0 0.00 0.00 0.00 65 1010.9
20260506083051 16 230 0.0 3.2 0.00 0.00 0.00 62 1010.9
20260506082050 16 225 0.0 1.6 0.00 0.00 0.00 61 1010.8
20260506081050 17 96 0.0 1.6 0.00 0.00 0.00 60 1010.7
20260506073051 19 0.0 0.0 0.00 0.00 0.00 53 1010.5
20260506072051 20 297 0.0 6.4 0.00 0.00 0.00 51 1010.3
20260506071051 20 131 0.0 4.8 0.00 0.00 0.00 48 1010.2
20260506070111 21 106 0.0 3.2 0.00 0.00 0.00 46 1010.0
20260506062052 23 272 6.4 12.9 0.00 0.00 0.00 38 1009.8
20260506061052 23 180 9.7 17.7 0.00 0.00 0.00 38 1009.6
20260506051052 24 167 8.0 17.7 0.00 0.00 0.00 37 1009.4
20260506045114 25 194 3.2 9.7 0.00 0.00 0.00 35 1009.4
20260506044053 25 173 6.4 17.7 0.00 0.00 0.00 34 1009.3
20260506043054 25 167 6.4 16.1 0.00 0.00 0.00 34 1009.2
20260506042114 25 161 6.4 16.1 0.00 0.00 0.00 34 1009.2
20260506041054 25 165 4.8 14.5 0.00 0.00 0.00 35 1009.1
20260506040055 25 160 6.4 16.1 0.00 0.00 0.00 35 1009.1
20260506035055 25 162 6.4 14.5 0.00 0.00 0.00 36 1009.0
20260506034055 25 154 1.6 9.7 0.00 0.00 0.00 38 1008.9
20260506033055 25 146 1.6 8.0 0.00 0.00 0.00 38 1008.9
20260506032055 25 164 6.4 12.9 0.00 0.00 0.00 38 1008.9
20260506031056 26 160 11.3 19.3 0.00 0.00 0.00 37 1008.9
20260506030055 26 155 9.7 16.1 0.00 0.00 0.00 36 1008.8
20260506025055 27 159 8.0 14.5 0.00 0.00 0.00 36 1008.8
20260506024056 28 157 4.8 16.1 0.00 0.00 0.00 35 1008.7
20260506023055 28 108 1.6 12.9 0.00 0.00 0.00 34 1008.7
20260506022056 28 107 1.6 8.0 0.00 0.00 0.00 35 1008.7
20260506021055 29 101 3.2 11.3 0.00 0.00 0.00 33 1008.7
20260506020056 29 135 3.2 9.7 0.00 0.00 0.00 33 1008.6
20260506015056 30 56 4.8 12.9 0.00 0.00 0.00 33 1008.5
20260506014137 30 52 3.2 11.3 0.00 0.00 0.00 32 1008.5
20260506013056 31 50 4.8 11.3 0.00 0.00 0.00 31 1008.5
20260506012059 31 50 3.2 9.7 0.00 0.00 0.00 31 1008.6
20260506011056 30 0.0 0.0 0.00 0.00 0.00 31 1008.6
20260506010057 30 20 3.2 9.7 0.00 0.00 0.00 31 1008.6
20260506005057 30 281 0.0 6.4 0.00 0.00 0.00 31 1008.6
20260506004057 30 38 0.0 6.4 0.00 0.00 0.00 31 1008.6
20260506003057 30 47 1.6 9.7 0.00 0.00 0.00 31 1008.7
20260506002057 29 47 1.6 8.0 0.00 0.00 0.00 32 1008.7
20260506001117 29 57 4.8 14.5 0.00 0.00 0.00 32 1008.8
20260506000057 30 45 4.8 17.7 0.00 0.00 0.00 33 1008.9
20260505235057 30 275 4.8 9.7 0.00 0.00 0.00 33 1009.0
20260505234057 29 59 1.6 9.7 0.00 0.00 0.00 32 1009.0
20260505233058 29 61 6.4 17.7 0.00 0.00 0.00 33 1009.1
20260505232057 29 45 3.2 12.9 0.00 0.00 0.00 33 1009.1
20260505231058 29 60 4.8 12.9 0.00 0.00 0.00 34 1009.2
20260505230118 29 57 8.0 17.7 0.00 0.00 0.00 34 1009.3
20260505225139 28 75 6.4 12.9 0.00 0.00 0.00 34 1009.4
20260505224058 28 47 1.6 11.3 0.00 0.00 0.00 34 1009.4
20260505223058 29 88 6.4 14.5 0.00 0.00 0.00 34 1009.5
20260505222059 29 39 0.0 4.8 0.00 0.00 0.00 33 1009.5
20260505221058 30 36 3.2 16.1 0.00 0.00 0.00 34 1009.6
20260505220059 30 135 3.2 12.9 0.00 0.00 0.00 34 1009.7
20260505215101 29 178 0.0 4.8 0.00 0.00 0.00 33 1009.7
20260505214059 28 46 4.8 11.3 0.00 0.00 0.00 34 1009.8
20260505213119 28 54 4.8 16.1 0.00 0.00 0.00 34 1009.9
20260505212058 28 62 1.6 8.0 0.00 0.00 0.00 34 1009.9
20260505211059 28 295 3.2 12.9 0.00 0.00 0.00 37 1010.1
20260505210059 27 58 4.8 17.7 0.00 0.00 0.00 36 1010.1
20260505205059 27 29 3.2 12.9 0.00 0.00 0.00 38 1010.1
20260505204100 27 16 1.6 11.3 0.00 0.00 0.00 36 1010.2
20260505203100 27 43 3.2 16.1 0.00 0.00 0.00 36 1010.3
20260505202059 27 16 1.6 8.0 0.00 0.00 0.00 37 1010.4
20260505201120 27 41 4.8 16.1 0.00 0.00 0.00 38 1010.5
20260505200119 27 46 3.2 11.3 0.00 0.00 0.00 38 1010.5
20260505195100 27 328 1.6 4.8 0.00 0.00 0.00 37 1010.6
20260505194100 27 34 1.6 9.7 0.00 0.00 0.00 37 1010.7
20260505193100 27 193 1.6 6.4 0.00 0.00 0.00 38 1010.7
20260505192101 26 285 6.4 12.9 0.00 0.00 0.00 40 1010.6
20260505191101 26 294 4.8 11.3 0.00 0.00 0.00 39 1010.7
20260505190120 26 347 1.6 4.8 0.00 0.00 0.00 39 1010.7
20260505185100 26 2 1.6 8.0 0.00 0.00 0.00 39 1010.8
20260505184100 26 32 0.0 4.8 0.00 0.00 0.00 40 1010.8
20260505183100 26 65 1.6 11.3 0.00 0.00 0.00 39 1010.8
20260505182101 26 255 3.2 9.7 0.00 0.00 0.00 39 1010.8
20260505181101 25 357 0.0 3.2 0.00 0.00 0.00 39 1010.9
20260505175101 26 21 1.6 8.0 0.00 0.00 0.00 40 1010.8
20260505174103 26 292 1.6 6.4 0.00 0.00 0.00 40 1010.8
20260505173102 25 234 3.2 6.4 0.00 0.00 0.00 40 1010.8
20260505172102 23 43 0.0 3.2 0.00 0.00 0.00 43 1010.8
20260505171102 22 44 3.2 9.7 0.00 0.00 0.00 48 1010.8
20260505170122 22 37 4.8 11.3 0.00 0.00 0.00 49 1010.8
20260505165102 21 40 4.8 12.9 0.00 0.00 0.00 51 1010.7
20260505164103 21 38 4.8 12.9 0.00 0.00 0.00 51 1010.7
20260505163103 22 35 4.8 11.3 0.00 0.00 0.00 51 1010.7
20260505162243 22 48 3.2 12.9 0.00 0.00 0.00 49 1010.6
20260505161103 22 45 3.2 9.7 0.00 0.00 0.00 48 1010.5
20260505153104 21 293 0.0 4.8 0.00 0.00 0.00 49 1010.4
20260505152103 21 294 3.2 11.3 0.00 0.00 0.00 48 1010.3
20260505151124 21 302 0.0 6.4 0.00 0.00 0.00 52 1010.2
20260505130124 13 0.0 0.0 0.00 0.00 0.00 72 1008.8
20260505124105 15 70 0.0 3.2 0.00 0.00 0.00 65 1008.4
20260505123104 15 243 0.0 3.2 0.00 0.00 0.00 64 1008.3
20260505122105 15 0.0 0.0 0.00 0.00 0.00 62 1008.2
20260505121105 15 154 0.0 1.6 0.00 0.00 0.00 63 1008.1
20260505120105 15 133 0.0 3.2 0.00 0.00 0.00 62 1008.0
20260505115105 16 253 0.0 3.2 0.00 0.00 0.00 60 1007.9
20260505114105 16 0.0 0.0 0.00 0.00 0.00 58 1007.9
20260505113106 16 129 0.0 3.2 0.00 0.00 0.00 58 1007.8
20260505112110 17 105 0.0 4.8 0.00 0.00 0.00 57 1007.7
20260505111107 17 0.0 0.0 0.00 0.00 0.00 56 1007.6
20260505110126 17 128 0.0 3.2 0.00 0.00 0.00 54 1007.5